UAL672 KSFO-LEBL

Flight info

Callsign UAL672
Flight time N/A
Altitude 33000
Route SNTNA2 ORRCA Q120 GALLI DCT PARZZ Q138 DKOTA/N0488F350 Q138 SSM DCT OBRET DCT TAFFY DCT JOOPY/M084F370 DCT 4830N050W 49N040W 49N030W 4830N020W 48N015W DCT BUNAV/N0481F370 DCT LAFOP DCT PEPET DCT LMB DCT ASPET DCT PUMAL
Aircraft B772/H-SDE2E3FGHIJ5LORVWXY/LB1D1

Departure

Time N/A
Airport San Francisco International Airport (KSFO)

Arrival

Time 2026-05-01 07:38
Airport Josep Tarradellas Barcelona-El Prat Airport (LEBL)
Time Latitude Longitude Altitude Speed Heading
2026-05-01 07:23 41.34276 1.72653 8179 ft 265 kts 225°
2026-05-01 07:23 41.30929 1.70826 7959 ft 270 kts 190°
2026-05-01 07:24 41.29089 1.70247 7772 ft 273 kts 192°
2026-05-01 07:24 41.27249 1.69633 7612 ft 272 kts 191°
2026-05-01 07:24 41.25422 1.69021 7432 ft 267 kts 192°
2026-05-01 07:24 41.23798 1.67921 7260 ft 266 kts 222°
2026-05-01 07:25 41.22753 1.65889 7128 ft 269 kts 244°
2026-05-01 07:25 41.21990 1.63569 6975 ft 278 kts 243°
2026-05-01 07:25 41.21185 1.61230 6891 ft 276 kts 244°
2026-05-01 07:25 41.20396 1.58936 6808 ft 270 kts 243°
2026-05-01 07:26 41.19618 1.56677 6472 ft 268 kts 244°
2026-05-01 07:26 41.18851 1.54452 6108 ft 260 kts 244°
2026-05-01 07:26 41.18104 1.52290 5864 ft 257 kts 244°
2026-05-01 07:26 41.17342 1.50160 5585 ft 253 kts 241°
2026-05-01 07:27 41.16272 1.48408 5410 ft 241 kts 211°
2026-05-01 07:27 41.14747 1.47473 5442 ft 243 kts 198°
2026-05-01 07:27 41.13129 1.47009 5428 ft 236 kts 175°
2026-05-01 07:27 41.11597 1.47639 5429 ft 231 kts 143°
2026-05-01 07:28 41.10580 1.49235 5429 ft 229 kts 111°
2026-05-01 07:28 41.10229 1.51262 5432 ft 224 kts 98°
2026-05-01 07:28 41.10017 1.53333 5377 ft 231 kts 97°
2026-05-01 07:28 41.09850 1.55439 5285 ft 226 kts 89°
2026-05-01 07:29 41.10291 1.57403 5255 ft 223 kts 61°
2026-05-01 07:29 41.11151 1.59141 5277 ft 230 kts 59°
2026-05-01 07:29 41.12013 1.60945 5284 ft 233 kts 60°
2026-05-01 07:29 41.12877 1.62756 5281 ft 231 kts 60°
2026-05-01 07:30 41.13738 1.64545 5264 ft 228 kts 60°
2026-05-01 07:30 41.14591 1.66319 5270 ft 229 kts 59°
2026-05-01 07:30 41.15458 1.68116 5284 ft 232 kts 59°
2026-05-01 07:30 41.16329 1.69922 5280 ft 232 kts 60°
2026-05-01 07:31 41.17190 1.71755 5035 ft 236 kts 63°
2026-05-01 07:31 41.19265 1.77353 4243 ft 207 kts 68°
2026-05-01 07:32 41.20363 1.80562 3954 ft 182 kts 67°
2026-05-01 07:32 41.20896 1.82118 3868 ft 184 kts 67°
2026-05-01 07:33 41.21931 1.85136 3494 ft 173 kts 67°
2026-05-01 07:33 41.22425 1.86577 3317 ft 170 kts 68°
2026-05-01 07:33 41.23421 1.89485 2879 ft 173 kts 68°
2026-05-01 07:34 41.23917 1.90935 2642 ft 171 kts 68°
2026-05-01 07:34 41.24867 1.93708 2217 ft 161 kts 66°
2026-05-01 07:34 41.25330 1.95056 2015 ft 157 kts 66°
2026-05-01 07:35 41.25773 1.96353 1779 ft 150 kts 67°
2026-05-01 07:35 41.26184 1.97561 1578 ft 136 kts 67°
2026-05-01 07:35 41.26568 1.98681 1435 ft 135 kts 66°
2026-05-01 07:35 41.26963 1.99834 1238 ft 137 kts 64°
2026-05-01 07:36 41.27356 2.00981 1051 ft 135 kts 65°
2026-05-01 07:36 41.27726 2.02068 893 ft 124 kts 64°
2026-05-01 07:36 41.28083 2.03106 720 ft 126 kts 65°
2026-05-01 07:36 41.28453 2.04189 569 ft 128 kts 64°
2026-05-01 07:37 41.29193 2.06331 219 ft 137 kts 62°
2026-05-01 07:37 41.29574 2.07459 55 ft 134 kts 63°
2026-05-01 07:37 41.29948 2.08514 30 ft 113 kts 62°
2026-05-01 07:38 41.30200 2.09279 25 ft 66 kts 65°
2026-05-01 07:38 41.30315 2.09619 26 ft 24 kts 65°
2026-05-01 07:38 41.30257 2.09859 22 ft 15 kts 164°
2026-05-01 07:39 41.30182 2.09785 22 ft 15 kts 250°
2026-05-01 07:39 41.30143 2.09657 21 ft 15 kts 247°
2026-05-01 07:39 41.30057 2.09407 22 ft 15 kts 243°
2026-05-01 07:40 41.30013 2.09283 24 ft 15 kts 246°
2026-05-01 07:40 41.29971 2.09157 27 ft 15 kts 246°
2026-05-01 07:40 41.29929 2.09031 25 ft 15 kts 246°
2026-05-01 07:40 41.29887 2.08905 26 ft 15 kts 244°
2026-05-01 07:41 41.29840 2.08780 25 ft 15 kts 245°
2026-05-01 07:41 41.29797 2.08652 23 ft 15 kts 246°
2026-05-01 07:41 41.29709 2.08402 21 ft 15 kts 246°
2026-05-01 07:42 41.29667 2.08272 21 ft 15 kts 241°
2026-05-01 07:42 41.29577 2.08251 20 ft 15 kts 154°
2026-05-01 07:42 41.29482 2.08309 24 ft 15 kts 156°
2026-05-01 07:42 41.29387 2.08366 24 ft 15 kts 155°
2026-05-01 07:43 41.29293 2.08425 29 ft 15 kts 156°
2026-05-01 07:43 41.29192 2.08441 29 ft 15 kts 194°
2026-05-01 07:43 41.28994 2.08350 26 ft 15 kts 199°
2026-05-01 07:44 41.28797 2.08259 22 ft 15 kts 208°
2026-05-01 07:44 41.28701 2.08025 19 ft 15 kts 248°
2026-05-01 07:45 41.28666 2.07896 21 ft 15 kts 250°
2026-05-01 07:45 41.28625 2.07773 24 ft 13 kts 245°
2026-05-01 07:45 41.28597 2.07683 25 ft 9 kts 263°
2026-05-01 07:45 41.28641 2.07640 23 ft 7 kts 340°
2026-05-01 07:46 41.28659 2.07630 23 ft 0 kts 336°
2026-05-01 07:46 41.28660 2.07629 23 ft 0 kts 336°
2026-05-01 07:46 41.28672 2.07622 23 ft 0 kts 335°